DateTimeUTC,F1_A11,F1_S11,BsB_S11,BsG_S11,BsR_S11,BbsB_S11,BbsG_S11,BbsR_S11,BaB_A11,BaG_A11,BaR_A11,Tu_S11,T_S11,Uu_S11,U_S11,P_S11,T1_A11
2021-02-18T02:00:00Z,00000200,21000000,,,,,,,-000.11,0000.29,-000.01,16.4,23.2,,00.0,0637.2,31.0
2021-02-18T02:01:00Z,00000200,21000000,,,,,,,-000.39,-000.15,0000.03,16.3,23.2,,00.0,0637.2,31.0
2021-02-18T02:02:00Z,00000200,21000000,,,,,,,0000.27,0000.15,-000.09,16.3,23.2,,00.0,0637.2,31.0
2021-02-18T02:03:00Z,00000200,61000000,,,,,,,0000.08,0000.13,-000.01,16.3,23.2,,00.0,0637.2,30.9
2021-02-18T02:04:00Z,00000200,41000000,-000.00,-000.39,0000.20,-000.24,0000.07,0000.01,0000.12,-000.41,0000.21,16.4,23.0,,00.0,0638.1,30.9
2021-02-18T02:05:00Z,00000200,01000000,-000.02,0000.01,0000.16,0000.09,0000.09,0000.24,0000.08,0000.53,-000.07,16.5,22.9,,00.0,0638.1,30.9
2021-02-18T02:06:00Z,00000200,01000000,0000.30,-000.13,0000.10,-000.20,-000.02,0000.13,0000.13,0000.21,0000.39,16.6,22.9,,00.0,0638.1,31.0
2021-02-18T02:07:00Z,00000200,01000000,-000.01,-000.46,-000.21,0000.08,0000.11,0000.20,0000.27,0000.05,0000.35,16.7,23.0,,00.0,0638.1,31.0
2021-02-18T02:08:00Z,00000200,01000000,0000.04,0000.33,-000.18,0000.38,-000.11,-000.10,0000.13,0000.27,0000.04,16.8,23.0,,00.0,0638.1,31.0
2021-02-18T02:09:00Z,00000200,01000000,0000.62,-000.23,0000.05,0000.20,-000.05,0000.20,0000.17,0000.11,0000.24,16.9,23.0,,00.0,0638.1,31.0
2021-02-18T02:10:00Z,00000200,01000000,0000.27,-000.04,-000.26,-000.59,-000.03,-000.13,-000.21,0000.04,-000.06,17.0,23.1,,00.0,0638.1,31.0
2021-02-18T02:11:00Z,00000200,01000000,0000.42,-000.06,-000.13,-000.26,0000.11,-000.37,0000.09,-000.03,-000.05,17.1,23.1,,00.0,0638.0,31.0
2021-02-18T02:12:00Z,00000200,01000000,0000.09,0000.18,0000.17,0000.88,-000.03,-000.22,0000.20,0000.11,0000.07,17.1,23.1,,00.0,0638.0,31.0
2021-02-18T02:13:00Z,00000200,01000000,0000.54,-000.10,-000.02,0000.46,0000.09,0000.36,0000.15,-000.01,-000.20,17.1,23.1,,00.0,0638.0,31.0
2021-02-18T02:14:00Z,00000200,01000000,0000.35,0000.09,-000.11,0000.45,-000.22,-000.19,-000.31,-000.02,0000.22,17.1,23.1,,00.0,0638.0,31.0
2021-02-18T02:15:00Z,00000200,01000000,-000.32,0000.15,-000.08,0000.16,0000.13,-000.19,0000.05,-000.05,0000.03,17.0,23.1,,00.0,0638.0,31.0
2021-02-18T02:16:00Z,00000200,01000000,0000.93,-000.12,-000.33,0000.50,0000.02,-000.22,0000.50,0000.14,0000.13,17.0,23.1,,00.0,0638.0,31.0
2021-02-18T02:17:00Z,00000200,01000000,-000.22,0000.14,0000.01,0000.63,0000.16,-000.02,-000.53,0000.19,-000.24,17.0,23.1,,00.0,0638.0,31.0
2021-02-18T02:18:00Z,00000200,01000000,-000.71,-000.13,-000.17,0000.08,0000.07,0000.02,-000.01,-000.70,-000.24,16.9,23.1,,00.0,0638.0,31.0
2021-02-18T02:19:00Z,00000200,01000000,0000.29,-000.03,0000.11,0000.01,0000.17,-000.20,0000.22,0000.46,0000.47,16.9,23.1,,00.0,0638.0,31.0
2021-02-18T02:20:00Z,00000200,01000000,0000.07,0000.05,0000.26,0000.45,-000.36,0000.19,0000.26,0000.34,-000.02,16.9,23.1,,00.0,0638.0,31.0
2021-02-18T02:21:00Z,00000200,01000000,0000.45,-000.24,-000.20,0000.11,-000.12,0000.08,0000.19,0000.20,0000.07,17.0,23.1,,00.0,0637.9,31.0
2021-02-18T02:22:00Z,00000200,01000000,-000.01,-000.14,0000.20,-000.00,0000.04,0000.25,-000.12,-000.23,0000.00,17.1,23.1,,00.0,0637.9,31.0
2021-02-18T02:23:00Z,00000200,01000000,0000.01,-000.37,-000.08,-000.18,0000.07,-000.10,-000.05,-000.25,-000.13,17.2,23.2,,00.0,0637.9,31.0
2021-02-18T02:24:00Z,00000200,01000000,0000.65,0000.10,0000.25,0000.08,0000.25,0000.28,0000.18,0000.52,0000.27,17.2,23.2,,00.0,0637.9,31.0
2021-02-18T02:25:00Z,00000200,01000000,-000.08,-000.28,0000.13,-000.38,-000.04,-000.21,-000.16,0000.19,-000.07,17.2,23.2,,00.0,0637.9,31.0
2021-02-18T02:26:00Z,00000200,01000000,0000.27,0000.04,-000.04,0000.33,-000.13,-000.22,0000.10,-000.29,0000.29,17.2,23.2,,00.0,0637.9,31.0
2021-02-18T02:27:00Z,00000200,01000000,0000.63,-000.07,-000.03,0000.42,0000.08,-000.09,0000.07,0000.21,-000.10,17.1,23.2,,00.0,0638.0,31.0
2021-02-18T02:28:00Z,00000200,01000000,0000.98,-000.13,-000.12,-000.09,0000.02,-000.07,-000.14,0000.25,-000.03,17.1,23.2,,00.0,0638.0,31.0
2021-02-18T02:29:00Z,00000200,01000000,0000.38,-000.19,0000.43,0000.29,0000.07,-000.05,0000.32,-000.57,-000.03,17.1,23.1,,00.0,0638.0,31.0
2021-02-18T02:30:00Z,00000200,01000000,0000.22,-000.16,0000.33,-000.14,0000.38,-000.12,-000.12,0000.47,-000.07,17.0,23.1,,00.0,0638.0,31.0
2021-02-18T02:31:00Z,00000200,01000000,0000.66,0000.01,0000.20,0000.27,-000.06,-000.05,-000.20,-000.40,0000.13,17.0,23.1,,00.0,0638.0,31.0
2021-02-18T02:32:00Z,00000200,01000000,-000.06,0000.19,-000.10,0000.07,0000.10,-000.21,0000.18,0000.31,-000.12,16.9,23.1,,00.0,0638.0,31.0
2021-02-18T02:33:00Z,00000200,01000000,0000.06,-000.02,0000.00,-000.17,-000.07,0000.22,-000.29,-000.84,-000.21,16.9,23.1,,00.0,0638.0,31.0
2021-02-18T02:34:00Z,00000200,01000000,0000.02,-000.52,-000.20,0000.17,-000.19,0000.02,0000.01,0000.53,-000.18,16.9,23.1,,00.0,0638.0,31.0
2021-02-18T02:35:00Z,00000200,01000000,0000.07,-000.26,-000.03,0000.27,0000.05,-000.02,0000.35,0000.05,0000.23,16.9,23.1,,00.0,0638.0,31.0
2021-02-18T02:36:00Z,00000200,01000000,0000.13,-000.09,-000.05,0000.58,0000.12,-000.26,-000.27,-000.18,0000.25,17.0,23.1,,00.0,0638.0,31.0
2021-02-18T02:37:00Z,00000200,01000000,0000.33,0000.23,-000.07,0000.37,0000.05,-000.24,-000.26,-000.04,-000.35,17.1,23.1,,00.0,0638.0,31.0
2021-02-18T02:38:00Z,00000200,01000000,-000.10,0000.02,0000.03,-000.11,0000.14,0000.13,-000.23,0000.01,0000.09,17.1,23.1,,00.0,0638.0,31.0
2021-02-18T02:39:00Z,00000200,01000000,0000.44,-000.39,-000.05,-000.01,0000.06,-000.09,0000.15,-000.04,-000.25,17.1,23.1,,00.0,0638.0,31.0
2021-02-18T02:40:00Z,00000200,01000000,0000.67,-000.43,0000.03,0000.07,-000.07,0000.08,-000.02,0000.12,0000.05,17.1,23.2,,00.0,0638.1,31.0
2021-02-18T02:41:00Z,00000200,01000000,-000.13,-000.19,-000.07,0000.53,-000.26,-000.27,0000.05,-000.23,-000.26,17.1,23.1,,00.0,0638.1,31.0
2021-02-18T02:42:00Z,00000200,01000000,0000.19,-000.04,-000.07,-000.19,-000.13,-000.23,-000.13,-000.25,0000.01,17.0,23.1,,00.0,0638.1,31.0
2021-02-18T02:43:00Z,00000200,01000000,-000.42,-000.12,-000.29,0000.27,0000.10,-000.25,0000.02,0000.29,0000.11,17.0,23.1,,00.0,0638.1,31.0
2021-02-18T02:44:00Z,00000200,01000000,0000.94,0000.08,0000.17,-000.17,0000.16,0000.11,-000.26,-000.12,0000.22,16.9,23.1,,00.0,0638.1,31.0
2021-02-18T02:45:00Z,00000200,01000000,0000.04,0000.02,-000.12,0000.43,0000.13,-000.35,0000.20,-000.19,-000.42,16.9,23.1,,00.0,0638.1,31.0
2021-02-18T02:46:00Z,00000200,01000000,0000.44,-000.05,-000.13,0000.54,0000.12,-000.33,0000.01,0000.03,0000.24,16.9,23.1,,00.0,0638.1,31.0
2021-02-18T02:47:00Z,00000200,01000000,0000.02,-000.16,0000.01,0000.34,0000.13,-000.04,0000.05,0000.16,0000.09,16.8,23.0,,00.0,0638.1,31.0
2021-02-18T02:48:00Z,00000200,01000000,0000.31,-000.10,0000.15,-000.56,0000.21,0000.24,-000.39,-000.15,0000.03,16.8,23.0,,00.0,0638.1,31.0
2021-02-18T02:49:00Z,00000200,01000000,0000.96,0000.17,0000.10,0000.08,0000.12,0000.09,0000.39,-000.05,-000.16,16.8,23.0,,00.0,0638.1,31.0
2021-02-18T02:50:00Z,00000200,01000000,0000.06,0000.10,-000.16,-000.38,-000.16,0000.05,0000.17,0000.27,0000.12,16.8,23.0,,00.0,0638.1,31.0
2021-02-18T02:51:00Z,00000200,01000000,0000.90,-000.12,0000.02,-000.16,-000.18,0000.17,0000.12,-000.02,0000.37,16.9,23.0,,00.0,0638.1,31.0
2021-02-18T02:52:00Z,00000200,01000000,0000.36,-000.19,0000.09,-000.04,0000.29,0000.32,-000.01,0000.31,-000.02,17.0,23.1,,00.0,0638.1,31.0
2021-02-18T02:53:00Z,00000200,01000000,0000.06,0000.05,0000.23,0000.35,-000.05,0000.02,0000.06,0000.06,-000.26,17.1,23.1,,00.0,0638.1,31.0
2021-02-18T02:54:00Z,00000200,01000000,-000.22,0000.24,0000.23,0000.13,-000.15,0000.08,0000.04,-000.16,0000.10,17.1,23.1,,00.0,0638.1,31.0
2021-02-18T02:55:00Z,00000200,01000000,0000.49,0000.08,0000.12,0000.11,0000.14,-000.00,-000.26,0000.02,0000.18,17.1,23.1,,00.0,0638.1,31.0
2021-02-18T02:56:00Z,00000200,01000000,0000.36,-000.09,0000.03,0000.80,0000.27,-000.24,0000.07,0000.08,-000.24,17.1,23.2,,00.0,0638.1,31.0
2021-02-18T02:57:00Z,00000200,41000000,,,,,,,0000.26,0000.03,0000.17,17.1,23.2,,00.0,0638.0,31.0
2021-02-18T02:58:00Z,00000200,61000000,,,,,,,-000.43,0000.05,0000.00,16.8,23.3,,00.0,0637.2,31.0
2021-02-18T02:59:00Z,00000200,21000000,,,,,,,0000.08,-000.07,0000.02,16.7,23.4,,00.0,0637.2,31.0
